Le nostre stazioni meteo in Italia

Pubblicità
Il mio iltempo24.it
Siracusa, Italia (16464): Temperatura & dewpoint: 08.11.2019 22:00:00 - 14.11.2019 22:00:00 (CET)Siracusa, Italia (16464): velocità del vento: 08.11.2019 22:00:00 - 14.11.2019 22:00:00 (CET)Siracusa, Italia (16464): direzione del vento: 08.11.2019 22:00:00 - 14.11.2019 22:00:00 (CET)Siracusa, Italia (16464): reduced air pressure: 08.11.2019 22:00:00 - 14.11.2019 22:00:00 (CET)Siracusa, Italia (16464): precipitazioni: 08.11.2019 22:00:00 - 14.11.2019 22:00:00 (CET)
Data & Tempo tt [°C] td [°C] ff [km/h] ff [kn] dd ppp [hPa] rr [mm]
14.11.2019 22:00:00 - - - - - - -
14.11.2019 21:00:00 - - - - - - -
14.11.2019 20:00:00 13,8 10,2 4 2 OSO 1011,3 -
14.11.2019 19:00:00 14,7 10,3 8 4 SSO 1010,7 -
14.11.2019 18:00:00 16,1 10,6 5 3 SSO 1009,9 -
14.11.2019 17:00:00 18,3 11,8 2 1 SSO 1009,0 -
14.11.2019 16:00:00 18,7 13,0 5 3 SO 1008,9 -
14.11.2019 15:00:00 18,3 13,5 11 6 SSO 1008,8 -
14.11.2019 14:00:00 18,4 13,6 9 5 SO 1008,8 -
14.11.2019 13:00:00 17,4 12,3 5 3 O 1009,0 -
14.11.2019 12:00:00 17,7 12,8 9 5 SO 1009,6 -
14.11.2019 11:00:00 - - - - - - -
14.11.2019 10:00:00 - - - - - - -
14.11.2019 09:00:00 - - - - - - -
14.11.2019 08:00:00 - - - - - - -
14.11.2019 07:00:00 - - - - - - -
14.11.2019 06:00:00 - - - - - - -
14.11.2019 05:00:00 - - - - - - -
14.11.2019 04:00:00 - - - - - - -
14.11.2019 03:00:00 - - - - - - -
14.11.2019 02:00:00 - - - - - - -
14.11.2019 01:00:00 - - - - - - -
14.11.2019 00:00:00 - - - - - - -
13.11.2019 23:00:00 12,6 - - - - - -
13.11.2019 22:00:00 13,3 8,5 8 4 SSO 1011,6 -
13.11.2019 21:00:00 13,4 7,8 8 4 SSO 1011,3 -
13.11.2019 20:00:00 14,4 8,3 8 4 SO 1010,9 -
13.11.2019 19:00:00 15,1 8,0 4 2 SO 1010,1 -
13.11.2019 18:00:00 16,3 7,4 8 4 SSO 1009,0 -
13.11.2019 17:00:00 18,0 7,4 11 6 SSO 1008,1 -
13.11.2019 16:00:00 19,7 7,4 15 8 SO 1007,3 -
13.11.2019 15:00:00 20,3 7,2 18 10 SO 1007,1 -
13.11.2019 14:00:00 20,5 7,4 21 11 O 1007,0 -
13.11.2019 13:00:00 20,3 8,2 16 9 O 1007,0 -
13.11.2019 12:00:00 19,8 9,0 16 9 SO 1006,8 -
13.11.2019 11:00:00 19,4 9,5 16 9 SSO 1006,8 -
13.11.2019 10:00:00 19,0 10,5 9 5 SO 1006,5 -
13.11.2019 09:00:00 - - - - - - -
13.11.2019 08:00:00 - - - - - - -
13.11.2019 07:00:00 - - - - - - -
13.11.2019 06:00:00 - - - - - - -
13.11.2019 05:00:00 - - - - - - -
13.11.2019 04:00:00 - - - - - - -
13.11.2019 03:00:00 - - - - - - -
13.11.2019 02:00:00 - - - - - - -
13.11.2019 01:00:00 - - - - - - -
13.11.2019 00:00:00 - - - - - - -
12.11.2019 23:00:00 - - - - - - -
12.11.2019 22:00:00 - - - - - - -
12.11.2019 21:00:00 15,7 13,5 - - - 998,1 -
12.11.2019 20:00:00 14,9 11,4 48 26 OSO 998,6 -
12.11.2019 19:00:00 14,8 11,2 31 17 NO 998,8 -
12.11.2019 18:00:00 16,8 11,5 37 20 O 998,3 -
12.11.2019 17:00:00 16,7 11,2 42 23 OSO 998,2 -
12.11.2019 16:00:00 16,7 11,2 50 27 OSO 998,3 -
12.11.2019 15:00:00 17,4 11,8 52 28 SO 997,3 -
12.11.2019 14:00:00 17,7 10,5 61 33 OSO 996,8 -
12.11.2019 13:00:00 16,8 11,5 52 28 SO 997,4 -
12.11.2019 12:00:00 16,1 11,2 48 26 OSO 998,3 -
12.11.2019 11:00:00 16,5 11,6 29 16 SO 998,8 -
12.11.2019 10:00:00 - - - - - - -
12.11.2019 09:00:00 - - - - - - -
12.11.2019 08:00:00 - - - - - - -
12.11.2019 07:00:00 15,7 14,0 9 5 SSO 996,3 -
12.11.2019 06:00:00 15,8 13,4 29 16 S 998,4 -
12.11.2019 05:00:00 17,5 14,1 29 16 SO 997,5 -
12.11.2019 04:00:00 18,8 15,4 15 8 SSO 997,2 -
12.11.2019 03:00:00 17,6 13,2 2 1 SO 998,5 -
12.11.2019 02:00:00 19,2 15,0 16 9 SO 999,7 -
12.11.2019 01:00:00 19,0 16,5 13 7 SO 999,5 -
12.11.2019 00:00:00 19,2 17,5 34 18 SO 999,1 -
11.11.2019 23:00:00 19,5 17,2 35 19 SSO 1001,2 -
11.11.2019 22:00:00 20,0 18,1 18 10 OSO 1000,5 -
11.11.2019 21:00:00 15,7 14,0 15 8 ONO 1002,0 -
11.11.2019 20:00:00 14,6 12,3 16 9 O 1004,0 -
11.11.2019 19:00:00 16,8 13,1 13 7 OSO 1004,6 -
11.11.2019 18:00:00 17,9 15,3 9 5 ONO 1004,2 -
11.11.2019 17:00:00 19,0 14,8 24 13 OSO 1003,4 -
11.11.2019 16:00:00 19,6 15,6 39 21 SO 1004,2 -
11.11.2019 15:00:00 - - - - - - -
11.11.2019 14:00:00 20,1 14,4 28 15 SO 1006,6 -
11.11.2019 13:00:00 20,8 12,9 26 14 SSO 1009,0 -
11.11.2019 12:00:00 21,2 12,3 24 13 SSO 1009,8 -
11.11.2019 11:00:00 21,6 12,1 22 12 SSO 1010,5 -
11.11.2019 10:00:00 21,2 13,0 - - - 1011,4 -
11.11.2019 09:00:00 - - - - - - -
11.11.2019 08:00:00 - - - - - - -
11.11.2019 07:00:00 - - - - - - -
11.11.2019 06:00:00 - - - - - - -
11.11.2019 05:00:00 - - - - - - -
11.11.2019 04:00:00 - - - - - - -
11.11.2019 03:00:00 - - - - - - -
11.11.2019 02:00:00 - - - - - - -
11.11.2019 01:00:00 - - - - - - -
11.11.2019 00:00:00 14,3 10,5 4 2 SO 1014,6 -
10.11.2019 23:00:00 14,5 10,7 0 0 N 1014,8 -
10.11.2019 22:00:00 14,7 10,7 4 2 SSO 1015,0 -
10.11.2019 21:00:00 14,3 10,3 4 2 SSO 1014,8 -
10.11.2019 20:00:00 14,1 8,7 4 2 SSO 1014,1 -
10.11.2019 19:00:00 15,6 8,5 2 1 SSO 1013,7 0,0
10.11.2019 18:00:00 16,5 7,9 2 1 SSO 1013,6 -
10.11.2019 17:00:00 18,4 8,9 4 2 SSO 1013,2 -
10.11.2019 16:00:00 20,1 7,7 11 6 SO 1013,3 -
10.11.2019 15:00:00 20,5 7,8 16 9 SSO 1013,1 -
10.11.2019 14:00:00 20,7 7,6 15 8 SSO 1013,1 -
10.11.2019 13:00:00 20,4 8,3 15 8 SO 1013,4 -
10.11.2019 12:00:00 20,3 8,9 13 7 SO 1014,0 -
10.11.2019 11:00:00 19,4 9,2 11 6 SO 1014,3 -
10.11.2019 10:00:00 - - - - - - -
10.11.2019 09:00:00 - - - - - - -
10.11.2019 08:00:00 - - - - - - -
10.11.2019 07:00:00 - - - - - - 0,0
10.11.2019 06:00:00 - - - - - - -
10.11.2019 05:00:00 - - - - - - -
10.11.2019 04:00:00 - - - - - - -
10.11.2019 03:00:00 - - - - - - -
10.11.2019 02:00:00 - - - - - - -
10.11.2019 01:00:00 - - - - - - -
10.11.2019 00:00:00 - - - - - - -
09.11.2019 23:00:00 - - - - - - -
09.11.2019 22:00:00 - - - - - - -
09.11.2019 21:00:00 - - - - - - -
09.11.2019 20:00:00 - - - - - - -
09.11.2019 19:00:00 14,1 6,9 2 1 SSO 1013,0 -
09.11.2019 18:00:00 15,5 7,2 8 4 SSO 1011,3 -
09.11.2019 17:00:00 - - 8 4 SSO 1011,9 -
09.11.2019 16:00:00 16,1 8,8 15 8 SSO 1012,4 -
09.11.2019 15:00:00 - - 28 15 SSO 1012,2 -
09.11.2019 14:00:00 15,9 12,4 5 3 SO 1011,5 -
09.11.2019 13:00:00 18,2 12,8 29 16 SSO 1012,1 -
09.11.2019 12:00:00 20,6 16,1 8 4 SO 1012,2 -
09.11.2019 11:00:00 18,9 16,3 0 0 N 1013,3 -
09.11.2019 10:00:00 - - - - - - -
09.11.2019 09:00:00 - - - - - - -
09.11.2019 08:00:00 - - - - - - -
09.11.2019 07:00:00 - - - - - - -
09.11.2019 06:00:00 - - - - - - -
09.11.2019 05:00:00 - - - - - - -
09.11.2019 04:00:00 - - - - - - -
09.11.2019 03:00:00 - - - - - - -
09.11.2019 02:00:00 - - - - - - -
09.11.2019 01:00:00 - - - - - - -
09.11.2019 00:00:00 - - - - - - -
08.11.2019 23:00:00 15,7 11,6 9 5 SO 1013,9 -
08.11.2019 22:00:00 14,9 10,7 4 2 SSO 1013,9 -

tt = Temperatura
td = dewpoint
ff = velocità del vento
dd = direzione del vento
ppp = reduced air pressure
rr = precipitazioni

Stazioni seguenti

WeatherPro
AMSI
MeteoEarth